#timestamp,LO_Frequency,Hit,StdDev 
1540677615.3,286046997.4,N
1540677635.2,286046996.6,Y
1540677655.9,286047001.1,P
1540677675.7,286046998.9,N
1540677695.6,286047000.5,N
1540677715.4,286047001.2,N
1540677735.3,286046996.9,N
1540677755.1,286046997.1,N
1540677756.0,286046997.1,N
1540677775.8,286046997.2,N
1540677795.7,286046997.5,N
1540677815.5,286046997.3,N
1540677835.3,286046997.0,N
1540677855.2,286046996.6,N
1540677875.0,286046997.1,N
1540677875.9,286046997.1,N
1540677895.8,286046996.5,N
1540677915.6,286046996.8,N
1540677935.4,286046999.2,N
1540677955.3,286046999.6,N
1540677975.1,286046997.1,N
1540677995.8,286046997.1,N
1540678015.7,286046997.2,N
1540678035.5,286046999.2,N
1540678055.4,286046999.3,N
1540678075.2,286046999.3,N
1540678095.0,286047001.0,N
1540678095.9,286047001.0,N
1540678115.8,286046998.8,N
1540678135.6,286047000.8,N
1540678155.5,286047000.3,N
1540678175.3,286047002.2,N
1540678195.1,286047000.0,N
1540678215.9,286047000.6,N
1540678235.7,286047000.4,N
1540678255.5,286047001.0,N
1540678275.4,286047002.6,N
1540678295.2,286046999.8,N
1540678315.1,286047011.9,Y
1540678316.0,286046999.7,P
1540678335.8,286047000.0,N
1540678355.6,286046999.9,N
1540678375.5,286047002.0,Y
1540678395.3,286047001.7,P
1540678415.2,286047005.1,P
1540678435.9,286047005.7,N
1540678455.7,286047005.5,N
1540678475.6,286047004.0,N
1540678495.4,286047001.8,N
1540678515.2,286047003.6,N
1540678535.1,286047002.3,N
1540678536.0,286047002.3,N
1540678555.8,286047001.7,N
1540678575.7,286047006.0,Y
1540678595.5,286047001.7,P
1540678615.3,286047002.8,P
1540678635.2,286047001.8,P
1540678655.0,286047001.4,N
1540678655.9,286047001.4,N
1540678675.8,286047002.9,Y
1540678695.6,286047003.9,P
1540678715.4,286047004.4,P
1540678735.3,286047002.3,N
1540678755.1,286047001.5,N
1540678775.8,286047000.2,N
1540678795.7,286047000.0,N
1540678815.5,286047002.1,N
1540678835.4,286047001.5,N
1540678855.2,286047001.6,N
1540678875.0,286047002.0,N
1540678875.9,286047002.0,N
1540678895.8,286047001.7,N
1540678915.6,286047001.4,N
1540678935.5,286047001.6,N
1540678955.3,286047000.1,N
1540678975.1,286047000.2,N
1540678995.9,286047001.2,N
1540679015.7,286047000.5,N
1540679035.5,286047001.4,N
1540679055.4,286047001.7,N
1540679075.2,286047002.1,N
1540679095.1,286046999.9,N
1540679096.0,286046999.9,N
1540679115.8,286047003.9,Y
1540679135.6,286046998.6,P
1540679155.5,286046998.9,N
1540679175.3,286047000.4,N
1540679195.2,286047003.9,Y
1540679215.9,286047002.8,P
1540679235.7,286047002.7,N
1540679255.6,286047002.3,N
1540679275.4,286047000.9,N
1540679295.2,286047001.0,N
1540679315.1,286046999.9,N
1540679316.0,286046999.9,N
1540679335.8,286046999.3,N
1540679355.7,286046998.3,N
1540679375.5,286046996.7,N
1540679395.3,286046999.0,N
1540679415.2,286046998.4,N
1540679435.0,286046999.2,N
1540679435.9,286046999.2,N
1540679455.8,286046997.2,N
1540679475.6,286046995.0,N
1540679495.4,286046997.4,N
1540679515.3,286046998.4,N
1540679535.1,286046998.3,N
1540679555.8,286047000.0,N
1540679575.7,286047000.6,N
1540679595.5,286046998.1,N
1540679615.4,286046998.4,N
1540679635.2,286047000.5,N
1540679655.0,286046999.7,N
1540679655.9,286046999.7,N
1540679675.8,286047002.4,N
1540679695.6,286047002.2,N
1540679715.4,286046998.6,N
1540679735.3,286046999.0,N
1540679755.1,286046998.3,N
1540679775.9,286046999.4,N
1540679795.7,286046997.3,N
1540679815.5,286046998.8,N
1540679835.4,286046996.9,N
1540679855.2,286046999.2,N
1540679875.1,286046998.3,N
1540679876.0,286046998.3,N
1540679895.8,286046998.6,N
1540679915.6,286047000.2,N
1540679935.5,286047002.4,N
1540679955.3,286047000.0,N
1540679975.1,286046999.7,N
1540679995.9,286047002.1,N
1540680015.7,286047000.6,N
1540680035.6,286047000.5,N
1540680055.4,286047000.1,N
1540680075.2,286047000.1,N
1540680095.1,286046999.9,N
1540680096.0,286046999.9,N
1540680115.8,286047002.8,N
1540680135.7,286047000.4,N
1540680155.5,286047000.8,N
1540680175.3,286047002.7,N
1540680195.2,286047001.9,N
1540680215.0,286047002.7,N
1540680215.9,286047002.7,N
1540680235.7,286047000.4,N
1540680255.6,286047000.0,N
1540680275.4,286046998.4,N
1540680295.3,286046999.1,N
1540680315.1,286046997.5,N
1540680335.8,286046998.8,N
1540680355.7,286046997.8,N
1540680375.5,286046996.9,N
1540680395.4,286046996.5,N
1540680415.2,286046999.5,N
1540680435.0,286047001.1,N
1540680435.9,286047001.1,N
1540680455.8,286047004.0,N
1540680475.6,286047003.3,N
1540680495.4,286047003.9,N
1540680515.3,286047002.8,N
1540680535.1,286047000.5,N
1540680555.9,286047002.1,N
1540680575.7,286047000.6,N
1540680595.5,286047001.1,N
1540680615.4,286046998.6,N
1540680635.2,286046999.6,N
1540680655.0,286046998.6,N
1540680656.0,286046998.6,N
1540680675.8,286047001.2,N
1540680695.6,286046998.2,N
1540680715.5,286047000.8,N
1540680735.3,286046999.2,N
1540680755.1,286046998.7,N
1540680775.9,286047000.6,N
1540680795.7,286046999.8,N
1540680815.6,286047000.1,N
1540680835.4,286047000.5,N
1540680855.2,286046998.7,N
1540680875.1,286046998.8,N
1540680876.0,286046998.8,N
1540680895.8,286046996.6,N
1540680915.6,286046997.2,N
1540680935.5,286046995.1,N
1540680955.3,286046998.0,N
1540680975.2,286046997.5,N
1540680995.9,286046997.3,N
1540681015.7,286046996.7,N
1540681035.6,286046997.7,N
1540681055.4,286046997.2,N
1540681075.2,286046997.1,N
1540681095.1,286046995.4,N
1540681096.0,286046995.4,N
1540681115.8,286046997.6,N
1540681135.7,286046997.5,N
1540681155.5,286046996.6,N
1540681175.3,286046999.3,N
1540681195.2,286046997.7,N
